User: anonymous   Login
Location: York
(31.8935°S, 116.7682°E)
Time: 13:35:48
(UTC+08:00)
Language:

FO-29 - Orbit

View from above orbital plane
View from above orbital plane
View from above satellite
View from above satellite

Ground track
Ground track

The orbit data is extracted from the following two-line orbital elements,

1 24278U 96046B   21209.78436811 -.00000030  00000-0  42914-5 0  9999
2 24278  98.5650 272.2771 0350951  42.7174 320.0687 13.53105269232080
Epoch (UTC): 28 July 2021 18:49:29
Eccentricity: 0.0350951
inclination: 98.5650°
perigee height: 800 km
apogee height: 1322 km
right ascension of ascending node: 272.2771°
argument of perigee: 42.7174°
revolutions per day: 13.53105269
mean anomaly at epoch: 320.0687°
orbit number at epoch: 23208

The dashed part of the orbit path shows where the satellite is in the earth's shadow,  

DLR